Tracking 19634 objects as of 21-May-2019
HD Live streaming from Space Station
objects crossing your sky now

FLOCK 3P 27

Track FLOCK 3P 27 now!
10-day predictions
FLOCK 3P 27 is classified as:


NORAD ID: 41963
Int'l Code: 2017-008R
Perigee: 489.9 km
Apogee: 499.5 km
Inclination: 97.4 °
Period: 94.4 minutes
Semi major axis: 6865 km
RCS: Unknown
Launch date: February 15, 2017
Source: United States (US)
Launch site: SRIHARIKOTA (SRI)
aabbcc
Your satellite tracking list
Your tracking list is empty




NASA's NSSDC Master Catalog

Two Line Element Set (TLE):
1 41963U 17008R   19141.15926433  .00001884  00000-0  75938-4 0  9995
2 41963  97.4072 208.5514 0006992 230.7005 129.3614 15.26061242125465
Source of the keplerian elements: AFSPC